Theta_e
319 318 318 317 317 319 320 321 321 321 319 319 318 318 316 315 317 315 315 313 312 311 310 309 308 306 305 303 302 301 300 299 298 298 298 298 297 295
319 319 317 317 317 318 316 317 316 318 317 318 318 316 316 316 317 315 314 312 311 310 309 308 307 305 304 302 301 299 298 297 296 294 293 293 292 292
319 319 318 315 315 315 315 316 316 316 317 317 317 316 316 316 315 312 311 311 310 310 309 308 306 304 302 301 300 298 296 295 294 294 293 293 293 292
320 319 317 315 315 318 319 318 318 319 317 316 315 316 315 314 314 312 310 310 309 308 307 306 303 300 300 300 299 298 296 295 294 294 293 292 291 291
320 319 316 317 323 321 320 318 318 319 318 316 314 315 313 312 311 310 310 307 306 305 303 300 300 300 300 299 298 297 295 294 293 290 288 287 287 287
320 321 323 322 321 320 319 319 318 317 316 313 312 311 310 310 309 308 305 304 304 302 300 299 297 296 296 296 296 294 291 288 288 287 287 287 287 287
322 322 322 321 320 319 318 316 314 312 310 309 309 308 307 305 304 302 300 300 299 298 298 296 294 292 290 289 289 288 288 287 287 287 287 286 286 286
321 320 319 317 316 315 313 312 308 306 305 304 303 303 300 298 297 296 295 294 293 293 292 290 291 290 289 288 288 289 287 287 287 287 287 286 286 286
318 316 313 312 310 308 306 305 303 302 301 301 299 298 297 296 294 293 292 291 290 290 289 289 288 289 288 288 288 288 288 287 286 286 286 285 285 285
312 309 307 306 304 302 301 300 300 299 298 297 296 295 294 294 293 291 288 287 287 286 287 286 286 286 287 288 288 288 288 287 287 287 286 285 284 284
305 303 300 299 299 298 298 297 297 296 296 295 294 293 291 289 285 284 283 282 284 285 286 287 286 286 286 287 286 286 287 287 286 286 286 285 285 284
300 298 296 297 295 295 294 294 293 291 290 289 287 286 285 284 284 284 283 282 283 283 284 284 284 284 285 285 285 285 286 286 285 285 285 285 286 286
296 295 294 294 293 292 291 290 288 287 285 283 283 283 283 283 283 282 282 281 281 281 281 282 281 281 281 282 282 283 284 284 284 284 284 285 286 287
293 292 291 289 288 287 286 283 283 282 282 281 281 282 282 281 281 280 279 279 279 278 278 278 278 278 278 279 279 280 281 282 282 283 284 284 287 287
289 287 286 285 283 282 282 281 280 280 279 279 279 279 279 278 278 278 278 278 277 277 277 278 278 278 277 277 278 278 279 280 281 282 282 283 285 287
284 284 282 282 282 281 281 280 279 278 277 277 277 276 276 276 276 276 275 275 275 275 275 276 277 277 278 277 278 278 278 279 280 281 282 283 285 287
282 282 281 281 280 280 279 278 278 277 276 275 275 274 274 274 273 273 273 273 273 273 274 274 275 276 276 276 276 276 277 277 278 279 280 281 283 287
281 280 279 278 278 277 277 276 275 275 274 273 273 272 272 272 271 271 271 271 272 272 273 273 273 274 274 274 275 276 277 278 279 281 282 282 283 285
278 278 277 276 275 275 274 274 273 272 271 271 271 270 270 270 270 270 270 270 271 271 271 271 272 272 273 274 275 275 275 275 276 278 278 280 282 287
275 275 274 274 273 273 272 271 271 270 270 270 269 269 269 269 269 269 270 270 270 270 270 271 272 272 273 272 272 272 273 274 276 277 278 279 282 286
273 273 272 272 271 271 270 270 269 269 269 269 269 268 268 268 268 269 269 269 269 270 270 270 271 271 271 272 272 273 273 274 275 277 277 279 282 285
271 271 270 270 269 269 269 269 269 268 268 268 268 267 267 267 268 268 268 269 269 269 270 270 270 271 271 271 272 272 273 274 275 276 279 281 282 285
269 269 269 268 268 268 268 267 267 267 267 267 267 267 266 266 267 267 268 268 268 269 269 270 270 270 270 271 271 272 274 274 275 279 282 285 285 285
Wind_Speed
31 32 34 36 38 35 34 34 34 36 38 36 40 43 43 36 36 37 37 34 32 33 35 35 33 34 33 33 34 35 36 37 38 39 42 44 45 43
33 35 38 40 39 37 41 40 41 40 47 42 45 46 37 33 37 38 35 33 35 36 35 35 35 35 34 33 34 35 35 36 36 37 38 39 40 41
39 42 44 42 47 54 53 50 49 45 50 49 46 40 38 40 39 39 32 30 36 39 38 36 34 37 36 35 35 35 36 36 37 38 40 42 43 43
43 48 47 48 56 50 52 45 41 43 45 47 45 43 43 39 40 33 34 35 38 39 36 35 36 38 38 38 38 38 39 40 41 42 44 45 46 46
47 48 48 49 49 43 43 41 42 44 43 44 42 44 41 35 30 31 40 37 37 35 33 32 32 34 37 39 40 42 42 43 44 44 45 45 45 46
38 38 39 37 39 41 39 41 43 43 40 40 38 36 33 35 36 36 35 32 30 28 24 25 26 32 36 38 40 42 44 43 42 41 40 41 41 41
41 39 36 35 37 40 42 39 36 35 34 33 32 32 32 29 25 23 24 23 20 17 20 21 25 29 33 33 35 35 35 36 37 38 40 39 38 39
34 34 33 33 32 32 33 32 26 25 25 23 23 20 17 13 10 11 13 15 17 15 20 26 25 27 31 33 37 39 39 39 38 38 39 39 39 38
28 27 25 24 23 21 19 17 15 15 15 15 13 13 15 15 15 16 19 20 23 24 22 32 29 36 39 38 34 34 35 36 37 36 37 37 37 38
17 15 15 14 11 10 9 9 9 10 11 12 13 15 18 20 22 22 23 27 30 31 31 39 37 36 31 31 30 31 33 37 37 35 34 35 35 35
7 5 2 3 4 6 9 10 13 15 18 20 22 24 23 21 20 22 24 24 27 25 21 27 29 30 33 38 38 32 30 32 34 31 27 27 30 33
3 2 2 5 8 9 12 14 16 17 19 19 18 20 20 19 22 23 24 22 23 29 21 21 22 20 24 24 26 25 23 22 22 26 28 29 28 29
4 5 7 10 13 15 16 15 15 16 16 14 13 13 13 13 13 14 16 20 25 27 23 26 26 24 26 31 33 31 33 33 29 31 27 26 27 27
6 8 10 12 14 14 14 13 14 14 11 14 15 15 15 15 15 15 18 23 25 27 29 29 33 31 30 32 36 38 26 26 26 28 28 29 25 29
8 8 10 12 14 15 16 17 15 12 14 16 16 16 15 18 21 22 22 21 22 23 24 25 27 30 29 31 32 34 31 29 27 28 29 29 28 26
12 14 13 13 15 15 13 13 14 14 15 15 16 17 20 21 22 22 25 25 27 29 26 26 26 28 28 28 28 32 31 30 27 28 28 29 27 24
9 8 8 9 10 11 12 12 12 15 16 15 19 22 22 23 25 26 26 28 30 32 31 27 25 25 25 26 31 32 34 33 31 31 30 31 33 25
6 8 9 11 11 12 12 13 14 16 17 19 20 21 22 23 25 25 25 26 27 27 28 26 27 28 28 29 26 31 32 32 28 25 21 26 32 23
9 9 9 10 11 11 12 13 14 15 17 16 17 19 20 20 22 24 24 24 25 25 26 27 27 26 29 30 29 23 27 30 30 33 26 26 27 22
11 10 9 10 11 11 12 12 13 14 15 16 17 18 19 20 22 21 22 23 24 26 27 24 24 24 26 32 39 40 28 27 22 25 26 29 27 22
10 9 9 9 10 10 11 13 14 15 16 17 17 18 19 19 20 20 21 23 25 25 26 27 26 27 30 31 33 33 31 24 24 26 28 27 17 20
9 9 9 9 10 11 12 13 14 15 15 16 17 18 18 18 19 20 21 23 25 26 27 28 27 28 29 30 33 34 33 30 25 25 21 28 17 14
9 9 9 10 10 11 12 13 14 14 15 16 16 17 18 18 19 20 22 23 25 26 26 28 30 30 29 29 30 32 32 32 27 10 6 11 15 13
Wind_Direction
256 263 264 271 274 271 273 269 270 268 271 273 271 280 275 271 262 260 255 253 250 251 252 250 256 258 259 259 258 258 260 260 259 258 259 262 265 267
260 265 268 273 270 268 278 274 277 276 279 269 271 281 274 265 265 252 251 249 254 254 250 254 262 260 263 262 260 261 263 263 263 264 265 266 267 268
262 262 268 277 276 282 282 280 273 276 271 263 270 272 260 267 252 243 244 248 260 254 253 254 257 258 260 261 263 263 264 264 264 264 266 267 268 268
262 264 271 279 281 280 282 281 276 280 278 267 268 266 261 257 246 237 242 255 256 252 252 256 253 257 261 264 263 263 265 267 267 268 268 270 271 270
259 267 276 278 283 277 280 285 283 278 275 273 262 262 256 239 243 253 246 245 246 248 254 252 253 256 261 262 260 264 267 269 271 271 269 269 268 269
273 281 285 283 279 279 277 280 282 276 272 270 266 266 247 243 244 245 246 247 249 251 250 256 257 262 264 263 266 268 268 269 270 269 269 267 267 267
271 275 280 278 278 270 274 273 269 270 269 263 254 251 247 244 243 246 251 262 267 260 257 251 263 267 272 275 273 274 271 269 267 266 267 267 267 268
272 274 274 275 274 273 272 271 268 268 262 255 249 246 246 248 259 265 250 252 277 266 278 275 265 258 269 278 280 276 272 270 270 270 269 268 268 270
267 269 271 274 278 278 277 268 259 254 251 249 254 251 252 254 258 262 277 273 266 269 271 269 263 270 275 273 272 274 276 274 270 271 271 269 269 272
262 267 269 272 272 270 267 268 266 273 272 281 286 290 290 288 287 289 286 284 280 274 272 273 279 277 276 275 274 271 271 274 276 277 276 272 271 270
263 260 266 300 299 298 306 306 312 307 308 306 307 308 306 299 289 285 282 283 283 280 275 273 275 275 268 271 272 272 271 276 279 278 276 276 278 277
113 61 360 339 344 335 331 327 324 319 315 312 311 311 311 307 302 298 294 287 283 284 287 288 287 285 291 274 274 277 266 263 279 278 278 279 286 284
26 1 344 334 327 326 325 322 317 313 316 321 319 316 308 298 290 281 280 279 283 282 284 282 291 282 272 279 274 270 276 277 278 278 279 275 276 278
355 340 335 332 331 337 342 342 336 335 327 322 324 322 317 310 303 299 293 288 284 285 289 286 283 284 281 279 279 286 284 280 280 278 276 270 272 271
358 356 349 353 3 351 356 359 7 345 337 331 325 321 317 310 308 307 304 300 295 293 292 291 287 287 282 282 284 286 291 287 284 281 279 280 270 262
6 2 11 16 11 7 5 357 347 342 344 336 325 322 318 316 313 311 309 306 303 301 296 292 288 285 279 280 284 284 286 289 287 282 279 279 271 249
25 14 4 3 1 352 348 346 344 339 335 334 326 321 319 315 313 311 309 306 305 306 305 301 296 294 293 289 287 284 286 286 283 281 282 278 272 242
31 19 12 5 360 352 346 340 337 333 327 325 323 319 317 316 314 313 312 310 309 309 308 308 307 305 300 291 283 284 284 280 283 283 273 274 278 256
39 28 13 5 359 351 346 341 335 328 324 324 322 320 321 320 321 319 318 317 313 311 308 308 308 305 300 297 302 294 308 301 292 279 285 277 262 219
34 28 15 6 1 353 344 337 331 329 328 324 325 324 323 321 319 318 317 315 313 311 311 311 308 306 309 309 307 301 302 303 300 295 297 296 297 195
32 24 13 2 351 342 334 332 329 328 327 327 325 322 320 320 317 315 314 314 314 314 312 311 309 307 305 306 301 301 303 295 291 290 285 282 276 175
21 11 358 348 340 337 332 330 328 329 327 326 322 320 318 315 314 315 315 314 314 313 311 311 314 313 310 306 302 303 304 305 296 288 271 263 235 167
360 354 344 339 335 330 330 329 330 328 325 323 321 317 314 316 315 313 313 311 312 311 314 316 315 316 313 309 305 304 305 304 304 314 360 158 168 158